This demonstration page uses our WeatherBlox Daily Observations layout. Learn more.

Left ArrowRight Arrow

44.31136, -96.79839

Hourly Observations for August 9, 2022

Temp ( °F °C ) Dew Point ( °F °C ) Humidity (%) Winds ( mph kmh ) Pressure ( in mb ) Visibility ( mi km ) Precip ( " mm )
12:56 am 00:56 Clear 58 14.4 58 14.4 100 100 SE 8 13 30.14 1021 10 16 0.00 0.00
1:56 am 01:56 Clear 56 13.3 56 13.3 100 100 SSE 6 9 30.14 1021 10 16 0.00 0.00
2:56 am 02:56 Clear 56 13.3 56 13.3 100 100 SSE 6 9 30.14 1021 10 16 0.00 0.00
3:56 am 03:56 Clear 54 12.2 54 12.2 100 100 SE 5 7 30.14 1021 10 16 0.00 0.00
4:56 am 04:56 Clear 54 12.2 54 12.2 100 100 S 5 7 30.14 1021 10 16 0.00 0.00
5:56 am 05:56 Clear 53 11.7 53 11.7 100 100 SE 8 13 30.14 1021 10 16 0.00 0.00
6:56 am 06:56 Sunny 57 13.9 55 12.8 93 93 SSE 8 13 30.14 1021 10 16 0.00 0.00
7:56 am 07:56 Sunny 62 16.7 55 12.8 78 78 SSE 10 17 30.13 1020 10 16 0.00 0.00
8:56 am 08:56 Sunny 67 19.4 58 14.4 73 73 S 9 15 30.14 1021 10 16 0.00 0.00
9:56 am 09:56 Sunny 72 22.2 60 15.6 66 66 SSW 14 22 30.13 1020 10 16 0.00 0.00
10:56 am 10:56 Sunny 74 23.3 60 15.6 62 62 S 14 22 30.13 1020 10 16 0.00 0.00
11:56 am 11:56 Sunny 77 25 62 16.7 60 60 SSW 13 20 30.12 1020 10 16 0.00 0.00
12:56 pm 12:56 Sunny 79 26.1 62 16.7 56 56 SSW 14 22 30.11 1020 10 16 0.00 0.00
1:56 pm 13:56 Sunny 81 27.2 63 17.2 54 54 S 14 22 30.11 1020 10 16 0.00 0.00
2:56 pm 14:56 Sunny 81 27.2 65 18.3 58 58 S 10 17 30.11 1020 10 16 0.00 0.00
3:56 pm 15:56 Sunny 84 28.9 64 17.8 51 51 S 13 20 30.10 1019 10 16 0.00 0.00
4:56 pm 16:56 Sunny 86 30 65 18.3 50 50 S 9 15 30.09 1019 10 16 0.00 0.00
5:56 pm 17:56 Sunny 85 29.4 64 17.8 50 50 S 8 13 30.09 1019 10 16 0.00 0.00
6:56 pm 18:56 Sunny 84 28.9 65 18.3 53 53 S 8 13 30.08 1019 10 16 0.00 0.00
7:56 pm 19:56 Sunny 80 26.7 65 18.3 60 60 SSE 9 15 30.09 1019 10 16 0.00 0.00
8:56 pm 20:56 Clear 74 23.3 66 18.9 76 76 SE 6 9 30.10 1019 10 16 0.00 0.00
9:56 pm 21:56 Clear 72 22.2 66 18.9 82 82 SE 7 11 30.12 1020 10 16 0.00 0.00
10:56 pm 22:56 Clear 69 20.6 66 18.9 90 90 SE 7 11 30.13 1020 10 16 0.00 0.00
11:56 pm 23:56 Clear 67 19.4 65 18.3 93 93 SSE 7 11 30.14 1021 10 16 0.00 0.00

Powered by AerisWeather